Tracking 19212 objects as of 16-Jul-2018
HD Live streaming from Space Station
objects crossing your sky now

METEOR 3-2

Track METEOR 3-2 now!
10-day predictions
METEOR 3-2 is classified as:


NORAD ID: 19336
Int'l Code: 1988-064A
Perigee: 1,190.6 km
Apogee: 1,214.7 km
Inclination: 82.5 °
Period: 109.3 minutes
Semi major axis: 7573 km
RCS: 6.8041 m2 (large)
Launch date: July 26, 1988
Source: Commonwealth of Independent States (former USSR) (CIS)
Launch site: PLESETSK MISSILE AND SPACE COMPLEX (PKMTR)
aabbcc
Your satellite tracking list
Your tracking list is empty




NASA's NSSDC Master Catalog

Two Line Element Set (TLE):
1 19336U 88064A   18196.57366994 -.00000050  00000-0 -16100-3 0  9990
2 19336  82.5416 219.3561 0015848 238.7111 280.9794 13.17179617440938
Source of the keplerian elements: AFSPC